User: anonymous   Login
Location: Lawrence Hall of Science
(37.8785°N, 122.2415°W)
Time: 07:47:24
(UTC-07:00)
Language:

ARGOS - Orbit

View from above orbital plane
View from above orbital plane
View from above satellite
View from above satellite

Ground track
Ground track

The orbit data is extracted from the following two-line orbital elements,

1 25634U 99008A   16205.82206019 -.00000019  00000-0  11448-4 0  9991
2 25634  98.6656 270.6293 0011303  76.8344 283.4093 14.19292141901880
Epoch (UTC): 23 July 2016 19:43:46
Eccentricity: 0.0011303
inclination: 98.6656°
perigee height: 819 km
apogee height: 836 km
right ascension of ascending node: 270.6293°
argument of perigee: 76.8344°
revolutions per day: 14.19292141
mean anomaly at epoch: 283.4093°
orbit number at epoch: 90188

The dashed part of the orbit path shows where the satellite is in the earth's shadow,  

DLR